{"data":{"norad_id":60105,"intl_designator":"2024-117Q","name":"STARLINK-32018","alt_names":[],"object_type":"PAYLOAD","status":"ACTIVE","operator":null,"country":"US","launch_date":"2024-06-23","launch_site_code":"AFETR","launch_vehicle":null,"mission":null,"orbit_class":"UNKNOWN","rcs_meters":null,"size_class":null,"mass_kg":null,"dimensions":null,"purposes":["comms"],"wikipedia_slug":null,"has_3d_model":false,"image_url":null,"decayed_at":null,"tle_current":{"epoch":"2026-05-25T00:42:17.791776Z","epoch_age_seconds":72625,"freshness":"FRESH","line1":"1 60105U 24117Q   26145.02937259 -.00000252  00000+0  36027-5 0  9994","line2":"2 60105  53.1619  42.5869 0001254  96.0566 264.0578 15.30190890108576","mean_motion":15.3019089,"eccentricity":0.0001254,"inclination_deg":53.1619,"raan_deg":42.5869,"arg_perigee_deg":96.0566,"mean_anomaly_deg":264.0578,"bstar":3.6027e-6,"rev_number":10857,"period_min":94.105905963144,"perigee_km":474.38285661168,"apogee_km":476.10168413269,"semimajor_km":6853.3792703722,"source":"CELESTRAK","updated_at":"2026-05-25T13:38:19.163013Z"}}}